[[{"header":{"parameterUnit":"m.s-1","parameterCategory":1,"la1":30.2991,"la2":30.254,"lo1":-89.0895,"lo2":-89.0444,"dy":0.0017,"dx":0.0017,"nx":28,"ny":28,"refTime":"2023-03-16T21:00:00:Z","depth":0,"parameterNumber":2,"parameterNumberName":"U-component_of_WINDS"},"data":[0,0,0,0,0,0,0,0,0,0,0,0,0,0,0,0,0,0,0,0,0,0,0,0,0,0,0,0,0,0,0,0,0,0,0,0,0,0,0,0,0,0,0,0,0,0,0,0,0,0,0,0,0,0,0,0,0,0,0.9281,0.928,0,0.9151,0.9149,0.9148,0.9082,0.9082,0.9082,0.9082,0.895,0.8947,0.8943,0,0,0,0,0,0,0,0,0,0,0,0,0,0.9476,0.9472,0.9281,0.928,0.9278,0.9151,0.9149,0.9147,0.9082,0.9082,0.9082,0.9081,0.8951,0.8947,0.8943,0,0,0,0,0,0,0,0,0,0,0,0,0,0.9373,0.9471,0.9281,0.923,0.9224,0.9151,0.9149,0.9147,0.9082,0.9082,0.9082,0.9081,0.8952,0.8947,0.8942,0.8912,0,0,0.8926,0.8924,0,0,0,0,0,0,0,0,0.9379,0.9366,0.9239,0.9233,0.9226,0.9132,0.9169,0.9068,0.9082,0.9136,0.9082,0.9081,0.9011,0.9001,0.8977,0.8906,0.89,0.8926,0.8923,0.8921,0.8919,0,0,0,0,0,0,0,0.9386,0.9371,0.923,0.9237,0.923,0.9214,0.9199,0.915,0.9075,0.9131,0.9126,0.9111,0.9007,0.8982,0.8973,0.8898,0.8926,0.8921,0.8918,0.8916,0.8797,0.8797,0,0,0,0,0,0,0.9401,0.9377,0.9234,0.9226,0.9304,0.921,0.9194,0.9163,0.9076,0.9062,0.9111,0.9109,0.8991,0.8979,0.8968,0.8927,0.8921,0.8916,0.8913,0.8797,0.8797,0.8797,0,0,0,0,0,0,0.9406,0.9389,0.9239,0.93,0.928,0.9207,0.9173,0.916,0.9134,0.9061,0.9048,0.9099,0.899,0.8975,0.8926,0.8922,0.8913,0.8909,0.8797,0.8797,0.8797,0.8845,0,0,0,0,0,0,0.9411,0.9391,0.9378,0.93,0.9277,0.9199,0.9172,0.9158,0.9125,0.9121,0.9045,0.9033,0.8989,0.8935,0.8921,0.8914,0.8905,0.8797,0.8797,0.8797,0.8844,0.8847,0.885,0,0,0,0,0,0.9419,0.9397,0.9378,0.9361,0.9259,0.9199,0.9185,0.9134,0.9125,0.9112,0.9065,0.9035,0.8925,0.893,0.8915,0.8906,0.8797,0.8797,0.8797,0.8842,0.8846,0.8849,0,0,0,0,0,0,0.9476,0.9386,0.9363,0.9316,0.9265,0.9188,0.9169,0.914,0.9092,0.9089,0.9029,0.9012,0.8969,0.8933,0.894,0.8873,0.8858,0.8855,0.8898,0.8901,0.8904,0.8913,0.89,0,0,0,0,0,0.9483,0.9441,0.9365,0.933,0.9306,0.9242,0.9214,0.9179,0.9125,0.9104,0.9053,0.9002,0.8956,0.8926,0.888,0.8838,0.8822,0.8825,0.8828,0.8831,0.8829,0.8805,0.8806,0.8796,0.8796,0.8796,0,0,0.9498,0.9443,0.942,0.934,0.9297,0.9256,0.9225,0.9182,0.9151,0.9097,0.9048,0.9009,0.8948,0.8903,0.8881,0.8872,0.8828,0.8831,0.8833,0.8829,0.8805,0.8806,0.8807,0.8796,0.8796,0.8796,0,0,0.9502,0.9457,0.9423,0.9381,0.9316,0.9274,0.9266,0.9193,0.9165,0.9114,0.9073,0.9036,0.8957,0.8916,0.8885,0.8876,0.8847,0.8862,0.8877,0.8855,0.8856,0.8856,0.8853,0.8853,0.886,0.886,0.8861,0,0.9528,0.9463,0.941,0.9369,0.9336,0.9286,0.9252,0.9213,0.9137,0.9116,0.9106,0.9007,0.8962,0.8907,0.8905,0.8882,0.8871,0.887,0.886,0.8859,0.8859,0.8856,0.8855,0.8863,0.8863,0.8862,0.8862,0,0.9499,0.9455,0.9436,0.9363,0.9328,0.9291,0.9233,0.9203,0.9172,0.9132,0.9082,0.9027,0.8968,0.8953,0.8922,0.8894,0.889,0.8871,0.8855,0.8863,0.8859,0.8857,0.8866,0.8865,0.8865,0.8864,0,0,0.9535,0.9434,0.9428,0.9395,0.932,0.9285,0.9247,0.919,0.9166,0.9116,0.9083,0.9018,0.9,0.8965,0.8929,0.891,0.8907,0.8893,0.889,0.8898,0.8873,0.8888,0.8887,0.8887,0.8887,0.8887,0.8878,0,0.953,0.9457,0.9409,0.9356,0.9316,0.9268,0.9235,0.9186,0.9147,0.9108,0.9065,0.9021,0.9,0.8979,0.8957,0.8912,0.8901,0.8912,0.8857,0.8855,0.8873,0.8885,0.89,0.8895,0.8876,0.8876,0.8876,0,0.9513,0.9464,0.9407,0.9338,0.9319,0.929,0.9234,0.9197,0.9141,0.9115,0.9076,0.904,0.8998,0.8986,0.8929,0.8937,0.8912,0.8887,0.8885,0.8878,0.8866,0.8878,0.8892,0.8891,0.8873,0.8873,0.8873,0,0.9545,0.9465,0.9421,0.9394,0.9313,0.9293,0.9259,0.9203,0.9172,0.9123,0.9103,0.9051,0.9022,0.8983,0.8934,0.893,0.8882,0.8866,0.8859,0.886,0.8851,0.8852,0.8861,0.8835,0.8835,0.8835,0.8835,0,0.9544,0.9511,0.9435,0.9408,0.937,0.9315,0.928,0.9241,0.9192,0.9158,0.9114,0.9082,0.9019,0.8981,0.8942,0.8901,0.8888,0.8866,0.8857,0.887,0.8873,0.8853,0.8852,0.8835,0.8835,0.8835,0.8835,0,0.9573,0.9521,0.947,0.9397,0.9378,0.9354,0.9292,0.9264,0.9224,0.9181,0.9167,0.9104,0.9056,0.9004,0.8938,0.8913,0.8874,0.886,0.8893,0.8887,0.8884,0.8885,0.8879,0.8876,0.8853,0.8853,0.8854,0,0.9576,0.955,0.9474,0.9448,0.9414,0.9372,0.934,0.9286,0.9255,0.919,0.9171,0.912,0.9076,0.9002,0.8951,0.8901,0.8885,0.8887,0.8877,0.8892,0.8886,0.8888,0.8885,0.889,0.889,0.8891,0.8891,0,0.9586,0.9562,0.9517,0.9464,0.9428,0.9384,0.9338,0.9319,0.9255,0.9223,0.9174,0.914,0.9073,0.9023,0.8967,0.8932,0.8902,0.8895,0.889,0.8904,0.8924,0.8914,0.89,0.8895,0.8894,0.8894,0.8894,0.8894,0.9602,0.9577,0.952,0.9473,0.9433,0.9391,0.9362,0.9318,0.9276,0.9217,0.9188,0.9139,0.9086,0.9007,0.8973,0.8935,0.8925,0.8919,0.8917,0.8917,0.8921,0.8931,0.8924,0.8924,0.8924,0.8924,0.8924,0,0.961,0.9572,0.9529,0.9466,0.9429,0.9403,0.9351,0.9323,0.928,0.9232,0.919,0.9134,0.9086,0.9031,0.898,0.896,0.8944,0.8948,0.8949,0.8942,0.8932,0.8941,0.8961,0.8961,0.8961,0.8961,0.8961,0.8961,0.961,0.9566,0.9536,0.9472,0.9434,0.9386,0.9358,0.932,0.9282,0.9221,0.9181,0.9146,0.9096,0.904,0.8995,0.8981,0.8964,0.8972,0.8953,0.8945,0.8942,0.8939,0.8947,0.8969,0.8969,0.8966,0.8966,0.8966]},{"header":{"parameterUnit":"m.s-1","parameterCategory":1,"la1":30.2991,"la2":30.254,"lo1":-89.0895,"lo2":-89.0444,"dy":0.0017,"dx":0.0017,"nx":28,"ny":28,"refTime":"2023-03-16T21:00:00:Z","depth":0,"parameterNumber":3,"parameterNumberName":"V-component_of_WINDS"},"data":[0,0,0,0,0,0,0,0,0,0,0,0,0,0,0,0,0,0,0,0,0,0,0,0,0,0,0,0,0,0,0,0,0,0,0,0,0,0,0,0,0,0,0,0,0,0,0,0,0,0,0,0,0,0,0,0,0,0,7.8955,7.8955,0,7.8993,7.8994,7.8994,7.8989,7.8989,7.8988,7.8988,7.9024,7.9025,7.9027,0,0,0,0,0,0,0,0,0,0,0,0,0,7.8875,7.8876,7.8955,7.8955,7.8956,7.8993,7.8994,7.8994,7.8989,7.8989,7.8988,7.8987,7.9023,7.9025,7.9027,0,0,0,0,0,0,0,0,0,0,0,0,0,7.8911,7.8877,7.8954,7.8958,7.8959,7.8993,7.8994,7.8994,7.899,7.8989,7.8988,7.8987,7.9023,7.9025,7.9027,7.906,0,0,7.9034,7.9035,0,0,0,0,0,0,0,0,7.8909,7.8914,7.8957,7.8958,7.8958,7.8986,7.8979,7.9016,7.899,7.8978,7.8988,7.8986,7.9012,7.9015,7.9024,7.9062,7.9063,7.9034,7.9036,7.9037,7.9037,0,0,0,0,0,0,0,7.8906,7.8912,7.897,7.8957,7.8958,7.8957,7.8961,7.8986,7.8999,7.8979,7.8978,7.8983,7.9012,7.9022,7.9025,7.9064,7.9034,7.9036,7.9038,7.9039,7.9132,7.9133,0,0,0,0,0,0,7.8903,7.891,7.8969,7.8971,7.8931,7.8959,7.8964,7.8978,7.8999,7.9001,7.8984,7.8983,7.9018,7.9022,7.9026,7.9067,7.9037,7.9039,7.904,7.9131,7.9133,7.9134,0,0,0,0,0,0,7.8902,7.8909,7.8967,7.8941,7.8948,7.8961,7.8977,7.8979,7.8989,7.9003,7.9005,7.8992,7.9018,7.9023,7.9052,7.9069,7.904,7.9042,7.913,7.9132,7.9133,7.915,0,0,0,0,0,0,7.8899,7.8908,7.8921,7.8941,7.8949,7.8993,7.8978,7.898,7.8993,7.8992,7.9011,7.9013,7.9017,7.9049,7.9055,7.9071,7.9044,7.9129,7.9131,7.9133,7.9148,7.9152,7.9155,0,0,0,0,0,7.8897,7.8923,7.8922,7.8929,7.8966,7.8994,7.8999,7.9004,7.8995,7.9008,7.9017,7.9012,7.9066,7.9052,7.9058,7.9076,7.9128,7.913,7.9133,7.9146,7.9151,7.9155,0,0,0,0,0,0,7.8902,7.8925,7.8924,7.8958,7.8974,7.8993,7.901,7.9009,7.9027,7.9025,7.903,7.9034,7.9065,7.9073,7.9057,7.911,7.9095,7.9099,7.9103,7.9108,7.9112,7.9109,7.9046,0,0,0,0,0,7.8908,7.893,7.8948,7.8976,7.8985,7.8996,7.9008,7.9011,7.9028,7.9034,7.9046,7.9062,7.9082,7.9095,7.9115,7.9149,7.9153,7.9164,7.9168,7.9171,7.9174,7.9195,7.92,7.9142,7.9142,7.9142,0,0,7.8919,7.8934,7.8947,7.8978,7.8991,7.9013,7.9002,7.9025,7.9042,7.9038,7.9067,7.9076,7.9094,7.9127,7.9141,7.9134,7.9191,7.9174,7.9176,7.9178,7.9198,7.9203,7.9208,7.9144,7.9143,7.9143,0,0,7.8951,7.8964,7.899,7.9004,7.9025,7.9032,7.9039,7.9058,7.9065,7.9095,7.9093,7.9112,7.9147,7.916,7.9172,7.9211,7.9208,7.9217,7.9237,7.9256,7.9261,7.9265,7.9281,7.9286,7.9221,7.9221,7.9221,0,7.8961,7.8996,7.9003,7.9028,7.9042,7.9041,7.9067,7.908,7.9105,7.9115,7.9107,7.9152,7.9164,7.9201,7.9211,7.9219,7.9227,7.9215,7.926,7.9264,7.9268,7.9283,7.9289,7.9222,7.9222,7.9221,7.9221,0,7.9009,7.9033,7.9051,7.9079,7.9094,7.912,7.913,7.9145,7.9147,7.9156,7.9187,7.9201,7.9225,7.9233,7.9234,7.9271,7.9266,7.9259,7.9245,7.9275,7.9289,7.9295,7.9223,7.9223,7.9222,7.9222,0,0,7.9045,7.9077,7.9084,7.9097,7.9121,7.9139,7.9165,7.919,7.9203,7.9221,7.9243,7.9273,7.9268,7.9281,7.9284,7.9301,7.9334,7.9292,7.9293,7.9301,7.9377,7.9383,7.9389,7.9332,7.9333,7.9334,7.9376,0,7.908,7.9127,7.9135,7.9176,7.9199,7.92,7.9222,7.9239,7.9248,7.9269,7.9278,7.93,7.929,7.9299,7.9316,7.9326,7.9349,7.9323,7.9353,7.9354,7.935,7.9396,7.9402,7.9441,7.9381,7.9382,7.9383,0,7.9128,7.915,7.9194,7.9217,7.9227,7.9247,7.9271,7.9291,7.931,7.9315,7.9331,7.9333,7.9359,7.9344,7.9381,7.9363,7.9376,7.9383,7.9385,7.9388,7.9371,7.9403,7.9453,7.946,7.9391,7.939,7.939,0,7.9152,7.9191,7.9224,7.9235,7.9262,7.9276,7.9288,7.9307,7.9322,7.9343,7.9353,7.9375,7.9388,7.9406,7.9413,7.9401,7.9451,7.9435,7.9457,7.9457,7.9468,7.9467,7.9523,7.9474,7.9474,7.9473,7.9473,0,7.9191,7.9218,7.9235,7.9255,7.9286,7.9295,7.9325,7.9336,7.9353,7.9375,7.9375,7.9396,7.9404,7.9426,7.9432,7.9463,7.9468,7.9473,7.9475,7.9474,7.9474,7.9483,7.9481,7.9475,7.9475,7.9474,7.9474,0,7.9223,7.9235,7.9271,7.9295,7.9301,7.9323,7.9343,7.9362,7.9372,7.94,7.9407,7.9421,7.9447,7.9456,7.9487,7.9491,7.9528,7.9526,7.9522,7.9523,7.9544,7.9542,7.9608,7.9618,7.9561,7.9562,7.9562,0,7.9248,7.927,7.9296,7.9312,7.9325,7.935,7.9366,7.9375,7.9392,7.9417,7.9433,7.946,7.9481,7.9522,7.9535,7.9559,7.9559,7.9581,7.9563,7.9562,7.9561,7.9561,7.9564,7.9584,7.9585,7.9585,7.9586,0,7.9292,7.9297,7.9321,7.9348,7.9368,7.9389,7.9409,7.9421,7.9434,7.9452,7.948,7.9497,7.953,7.9556,7.9581,7.9592,7.9592,7.9591,7.9598,7.9598,7.9595,7.9599,7.9533,7.959,7.9589,7.9589,7.9589,7.9589,7.9322,7.9342,7.9365,7.9392,7.9409,7.9428,7.9449,7.9462,7.9485,7.9514,7.9517,7.9547,7.9568,7.9602,7.9614,7.9638,7.9632,7.9641,7.9643,7.9646,7.9648,7.9591,7.9642,7.9642,7.9642,7.9642,7.9642,0,7.9367,7.9383,7.9407,7.9437,7.9459,7.9457,7.948,7.9498,7.9525,7.9545,7.9567,7.9599,7.9625,7.9641,7.9667,7.9683,7.9684,7.969,7.9689,7.9692,7.9651,7.9644,7.9689,7.9689,7.9689,7.9689,7.9689,7.9689,7.9393,7.9428,7.9437,7.948,7.9495,7.9526,7.9539,7.9557,7.9574,7.961,7.9633,7.9643,7.9662,7.969,7.9714,7.9718,7.9728,7.9735,7.9739,7.97,7.9695,7.969,7.9684,7.9737,7.9737,7.9778,7.9779,7.9779]}]]